Flag for Germany Weather past 2 weeks in Delmenhorst, Lower Saxony, Germany

46 °F

Sprinkles. Passing clouds.

Feels Like: 39 °F
Forecast: 40 / 45 °F
Wind: 21 mph from West

Location: Bremen Airport

Current Time: Nov 30, 2015 at 12:23:01 AM

Latest Report: Nov 29, 2015 at 11:20 PM

Visibility: N/A

Pressure: 29.56 "Hg

Humidity: 82%

Dew point: 41 °F

Location of DelmenhorstLocation

Historic Weather in Delmenhorst — Graph


Delmenhorst temperature yesterday

Maximum temperature yesterday: 52 °F (at 6:20 PM)
Minimum temperature yesterday: 43 °F (at 12:20 AM)
Average temperature yesterday: 48 °F

Past Weeks' High & Low Weather Summary

High57 °F (Nov 15, 10:20 AM)100% (Nov 15, 1:50 AM)30.18 "Hg (Nov 15, 1:50 AM)
Low28 °F (Nov 22, 12:20 AM)57% (Nov 23, 1:20 PM)29.33 "Hg (Nov 21, 3:20 AM)
Average44 °F88%29.73 "Hg
* Reported Nov 14 10:20 PM — Nov 29 10:50 PM, Delmenhorst, Weather by CustomWeather, © 2015

Note: Actual official high and low records may vary slightly from our data, if they occured in-between our weather recording intervals... More about our weather records


Delmenhorst weather history for previous 24 hours

Time TempWeatherWind HumidityBarometerVisibility
10:50 PM
Sun, Nov 29
48 °FPassing clouds.24 mph76%29.56 "HgN/A
10:20 PM48 °FPassing clouds.26 mph76%29.53 "HgN/A
9:50 PM48 °FPassing clouds.17 mph87%29.53 "HgN/A
9:20 PM50 °FSprinkles. Passing clouds.22 mph82%29.50 "HgN/A
8:50 PM50 °FSprinkles. Partly cloudy.25 mph82%29.50 "HgN/A
8:20 PM52 °FThunderstorms. Passing clouds.28 mph88%29.47 "Hg6 mi
7:50 PM52 °FSprinkles. Passing clouds.29 mph82%29.45 "HgN/A
7:20 PM52 °FLight rain. Passing clouds.26 mph82%29.47 "HgN/A
6:50 PM52 °FPassing clouds.24 mph82%29.47 "HgN/A
6:20 PM52 °FPassing clouds.25 mph82%29.50 "HgN/A
5:50 PM50 °FPassing clouds.24 mph88%29.50 "HgN/A
5:20 PM50 °FPassing clouds.21 mph88%29.53 "HgN/A
4:50 PM48 °FPassing clouds.17 mph94%29.53 "HgN/A
4:20 PM48 °FLight rain. Passing clouds.18 mph87%29.56 "HgN/A
3:50 PM48 °FLight rain. Partly sunny.18 mph87%29.56 "HgN/A
3:20 PM50 °FLight rain. Partly sunny.20 mph82%29.56 "HgN/A
2:50 PM50 °FPartly sunny.20 mph82%29.59 "HgN/A
2:20 PM50 °FBroken clouds.20 mph82%29.59 "HgN/A
1:50 PM50 °FPartly sunny.17 mph82%29.62 "HgN/A
1:20 PM48 °FPartly sunny.18 mph87%29.62 "HgN/A
12:50 PM48 °FPartly sunny.20 mph87%29.62 "HgN/A
12:20 PM48 °FBroken clouds.18 mph82%29.62 "HgN/A
11:50 AM48 °FBroken clouds.18 mph82%29.65 "HgN/A
11:20 AM48 °FLight rain. Broken clouds.16 mph82%29.65 "HgN/A
10:20 AM48 °FLight rain. Partly sunny.17 mph82%29.65 "HgN/A
9:50 AM48 °FBroken clouds.17 mph87%29.65 "HgN/A
9:20 AM48 °FBroken clouds.17 mph82%29.62 "HgN/A
8:50 AM46 °FBroken clouds.18 mph87%29.62 "HgN/A
7:50 AM46 °FPartly cloudy.17 mph87%29.62 "HgN/A
7:20 AM46 °FPassing clouds.16 mph87%29.62 "HgN/A
6:50 AM46 °FPassing clouds.16 mph87%29.62 "HgN/A
6:20 AM46 °FPassing clouds.16 mph87%29.59 "HgN/A
5:20 AM45 °FPassing clouds.18 mph93%29.62 "HgN/A
4:50 AM45 °FPassing clouds.20 mph87%29.59 "HgN/A
4:20 AM45 °FPassing clouds.18 mph87%29.59 "HgN/A
3:50 AM45 °FPassing clouds.17 mph87%29.62 "HgN/A
3:20 AM45 °FClear.21 mph87%29.62 "Hg10 mi
2:50 AM45 °FClear.23 mph87%29.62 "Hg10 mi
2:20 AM43 °FClear.18 mph93%29.62 "Hg10 mi
1:50 AM43 °FClear.18 mph87%29.62 "Hg10 mi
12:50 AM43 °FLight rain. Passing clouds.17 mph87%29.65 "HgN/A
12:20 AM43 °FQuite cool.18 mph87%29.65 "HgN/A
Weather by CustomWeather, © 2015

See weather overviewHow to use our weather pages